Location: Melbourne
(37.8170°S, 144.9670°E)
Time: 13:42:44
(UTC+10:00)

Vanguard 1 Rocket - Visible Passes

Search period start: 19 August 2017 00:00
Search period end: 29 August 2017 00:00
Orbit: 653 x 4224 km, 34.3° (Epoch: 17 August)

Date Brightness Start Highest point End Pass type
(mag) Time Alt. Az. Time Alt. Az. Time Alt. Az.
19 Aug 11.8 19:55:52 10° WNW 20:07:02 19° NW 20:21:10 10° N visible
20 Aug 11.5 18:41:36 10° W 18:53:34 27° NNW 19:11:03 10° NNE visible
21 Aug 12.0 20:03:15 10° WNW 20:10:01 13° NW 20:17:48 10° NNW visible
22 Aug 11.7 18:46:25 10° WNW 18:56:36 20° NW 19:10:31 10° N visible
24 Aug 12.0 18:52:44 10° WNW 18:59:44 14° NW 19:08:21 10° N visible
